Home > Weather > Kirkland Lake > Past weeks

Flag for Canada Weather for the Past 2 Weeks in Kirkland Lake, Ontario, Canada

Now
19 °F

Light snow. Mostly cloudy.


Feels Like: 13 °F
Forecast: 6 / 21 °F
Wind: 5 mph from North

Location: Earlton

Current Time: Feb 9, 2016 at 1:33:55 PM

Latest Report: Feb 9, 2016 at 1:04 PM


Visibility: 3 mi

Pressure: 29.65 "Hg

Humidity: 79%

Dew point: 14 °F

Location of Kirkland LakeLocation

Historic Weather in Kirkland Lake — Graph

°F

Kirkland Lake Temperature Yesterday

Maximum temperature yesterday: 25 °F (at 4:00 PM)
Minimum temperature yesterday: 14 °F (at 12:00 AM)
Average temperature yesterday: 21 °F

High & Low Weather Summary for the Past Weeks

 TemperatureHumidityPressure
High36 °F (Jan 31, 12:00 PM)100% (Jan 25, 12:00 PM)30.37 "Hg (Jan 25, 12:00 PM)
Low-15 °F (Jan 29, 10:00 PM)65% (Jan 29, 1:00 PM)29.35 "Hg (Jan 28, 2:00 PM)
Average14 °F87%29.87 "Hg
* Reported Jan 25 12:00 Noon — Feb 9 12:04 PM, Kirkland Lake, Weather by CustomWeather, © 2016

Note: Actual official high and low records may vary slightly from our data, if they occured in-between our weather recording intervals... More about our weather records

Advertising

Kirkland Lake Weather History for the Previous 24 Hours

 ConditionsComfort  
Time TempWeatherWind HumidityBarometerVisibility
12:04 PM
Tue, Feb 9
18 °FLight snow. Mostly cloudy.6 mph86%29.67 "Hg3 mi
11:04 AM18 °FLight snow. More clouds than sun.5 mph86%29.67 "Hg6 mi
10:00 AM16 °FLight snow. Overcast.9 mph86%29.68 "Hg9 mi
9:02 AM16 °FLight snow. Overcast.12 mph93%29.68 "Hg6 mi
8:00 AM16 °FLight snow. Overcast.8 mph93%29.69 "Hg7 mi
7:45 AM16 °FLight snow. Overcast.8 mph93%29.68 "Hg6 mi
7:00 AM18 °FLight snow. Overcast.8 mph86%29.68 "Hg3 mi
6:00 AM18 °FLight snow. Mostly cloudy.8 mph93%29.68 "Hg3 mi
5:00 AM18 °FLight snow. Overcast.12 mph93%29.68 "Hg8 mi
4:04 AM19 °FLight snow. Mostly cloudy.12 mph86%29.69 "Hg5 mi
3:00 AM19 °FLight snow. Overcast.13 mph93%29.69 "Hg9 mi
2:00 AM21 °FLight snow. Overcast.15 mph86%29.70 "Hg9 mi
1:00 AM21 °FLight snow. Overcast.17 mph93%29.70 "Hg9 mi
12:00 AM23 °FLight snow. Mostly cloudy.15 mph93%29.71 "Hg9 mi
11:54 PM
Mon, Feb 8
23 °FLight snow. Overcast.15 mph93%29.71 "Hg6 mi
11:00 PM25 °FLight snow. Overcast.13 mph93%29.71 "Hg6 mi
10:51 PM25 °FLight snow. Overcast.16 mph93%29.71 "Hg6 mi
10:00 PM25 °FLight snow. Overcast.12 mph93%29.71 "Hg7 mi
9:57 PM25 °FLight snow. Overcast.12 mph93%29.71 "Hg6 mi
9:00 PM25 °FLight snow. Overcast.10 mph93%29.73 "Hg5 mi
8:57 PM25 °FLight snow. Overcast.12 mph93%29.73 "Hg5 mi
8:00 PM25 °FLight snow. Overcast.13 mph93%29.73 "Hg4 mi
7:00 PM25 °FLight snow. Mostly cloudy.9 mph93%29.74 "Hg1 mi
6:00 PM25 °FLight snow. Mostly cloudy.9 mph100%29.75 "Hg1 mi
5:01 PM25 °FLight snow. More clouds than sun.8 mph100%29.74 "Hg1 mi
4:53 PM25 °FLight snow. Mostly cloudy.8 mph100%29.75 "Hg1 mi
4:00 PM25 °FLight snow. Overcast.7 mph93%29.75 "Hg1 mi
3:04 PM23 °FLight snow. Overcast.7 mph93%29.75 "Hg2 mi
2:46 PM23 °FLight snow. More clouds than sun.8 mph93%29.75 "Hg3 mi
2:00 PM23 °FLight snow. Mostly cloudy.8 mph93%29.76 "Hg1 mi
1:00 PM21 °FLight snow. Overcast.10 mph100%29.78 "Hg2 mi
Weather by CustomWeather, © 2016

See weather overviewHow to use our weather pages